Weather History for Wise, VA

Change the Weather History Date:

Monday, March 17, 2014

  Actual Average Record
Temperature  
Mean Temperature 34 °F -  
Max Temperature 35 °F 50 °F 71 °F (2012)
Min Temperature 32 °F 32 °F 24 °F (2007)
Degree Days  
Heating Degree Days 32    
Moisture  
Dew Point 34 °F    
Average Humidity 100    
Maximum Humidity 100    
Minimum Humidity 100    
Precipitation  
Precipitation 0.15 in - - ()
Sea Level Pressure  
Sea Level Pressure 29.75 in    
Wind  
Wind Speed 5 mph (NNE)    
Max Wind Speed 10 mph    
Max Gust Speed -    
Averages and records for this station are not official NWS values.
T = Trace of Precipitation, MM = Missing Value Source: NWS Daily Summary

Daily Weather History Graph

Daily Weather History Graph

Search for Another Location

Airport:

Trip Planner

Search our weather history database for the weather conditions in past years. The results will help you decide how hot, cold, wet, or windy it might be!

Date:

Astronomy

Mar. 17, 2014 Rise Set
Actual Time 7:38 AM EDT 7:39 PM EDT
Civil Twilight 7:12 AM EDT 8:05 PM EDT
Nautical Twilight 6:42 AM EDT 8:35 PM EDT
Astronomical Twilight 6:11 AM EDT 9:05 PM EDT
Moon 8:52 PM EDT (3/17) 7:54 AM EDT (3/17)
Length of Visible Light 12h 52m
Length of Day
12h 01m
Full, 99% of the Moon is Illuminated
Mar 17
Full
Mar 23
Last Quarter
Mar 30
New
Apr 7
First Quarter
Apr 15
Full

Hourly Weather History & Observations

Time (EDT) Temp. Windchill Dew Point Humidity Pressure Visibility Wind Dir Wind Speed Gust Speed Precip Events Conditions
12:15 AM 35.6 °F 30.7 °F 35.6 °F 100% 29.76 in 0.2 mi North 5.8 mph - N/A Fog Fog
12:35 AM 35.6 °F 29.2 °F 35.6 °F 100% 29.75 in 0.2 mi NNE 8.1 mph - N/A Fog Fog
12:55 AM 35.6 °F 29.2 °F 35.6 °F 100% 29.75 in 0.2 mi NNE 8.1 mph - N/A Fog Fog
1:15 AM 35.6 °F 30.7 °F 35.6 °F 100% 29.74 in 0.2 mi NNE 5.8 mph - N/A Fog Fog
1:35 AM 35.6 °F 29.9 °F 35.6 °F 100% 29.74 in 0.2 mi NNE 6.9 mph - N/A Fog Fog
1:55 AM 35.6 °F 30.7 °F 35.6 °F 100% 29.74 in 0.2 mi NE 5.8 mph - N/A Fog Fog
2:15 AM 35.6 °F 29.2 °F 35.6 °F 100% 29.74 in 0.2 mi NNE 8.1 mph - N/A Fog Fog
2:35 AM 33.8 °F 27.7 °F 33.8 °F 100% 29.73 in 0.2 mi NNE 6.9 mph - N/A Fog Fog
2:55 AM 33.8 °F 28.6 °F 33.8 °F 100% 29.74 in 0.2 mi North 5.8 mph - 0.01 in Fog Fog
3:15 AM 33.8 °F 28.6 °F 33.8 °F 100% 29.72 in 0.2 mi NNE 5.8 mph - N/A Fog Fog
3:35 AM 33.8 °F 27.7 °F 33.8 °F 100% 29.72 in 0.2 mi NNE 6.9 mph - N/A Fog Fog
3:55 AM 33.8 °F 28.6 °F 33.8 °F 100% 29.71 in 0.2 mi North 5.8 mph - N/A Fog Fog
4:15 AM 33.8 °F 28.6 °F 33.8 °F 100% 29.70 in 0.2 mi North 5.8 mph - N/A Fog Fog
4:35 AM 33.8 °F 29.6 °F 33.8 °F 100% 29.70 in 2.5 mi North 4.6 mph - 0.05 in Snow Light Snow
4:55 AM 32.0 °F 26.4 °F 32.0 °F 100% 29.70 in 0.8 mi North 5.8 mph - 0.06 in   Overcast
5:15 AM 32.0 °F 26.4 °F 32.0 °F 100% 29.70 in 0.5 mi NNE 5.8 mph - 0.01 in   Overcast
5:35 AM 32.0 °F 26.4 °F 32.0 °F 100% 29.70 in 0.2 mi NNE 5.8 mph - 0.01 in Fog Fog
5:55 AM 32.0 °F 24.8 °F 32.0 °F 100% 29.70 in 0.2 mi NNE 8.1 mph - 0.02 in Fog Fog
6:15 AM 32.0 °F 26.4 °F 32.0 °F 100% 29.70 in 0.2 mi NNE 5.8 mph - N/A   Overcast
6:35 AM 32.0 °F 26.4 °F 32.0 °F 100% 29.70 in 0.2 mi NNE 5.8 mph - 0.01 in Fog Fog
6:55 AM 32.0 °F 26.4 °F 32.0 °F 100% 29.70 in 0.2 mi NNE 5.8 mph - 0.01 in Fog Fog
7:15 AM 32.0 °F 27.5 °F 32.0 °F 100% 29.71 in 0.2 mi NNE 4.6 mph - N/A Fog Fog
7:35 AM 32.0 °F 24.8 °F 32.0 °F 100% 29.71 in 0.2 mi NNE 8.1 mph - N/A Fog Fog
7:55 AM 32.0 °F 27.5 °F 32.0 °F 100% 29.73 in 0.2 mi NNE 4.6 mph - N/A Fog Fog
8:15 AM 32.0 °F 24.2 °F 32.0 °F 100% 29.72 in 0.2 mi North 9.2 mph - N/A Fog Fog
8:35 AM 32.0 °F 27.5 °F 32.0 °F 100% 29.73 in 0.2 mi NNE 4.6 mph - 0.01 in Fog Fog
8:55 AM 32.0 °F 26.4 °F 32.0 °F 100% 29.72 in 0.2 mi NE 5.8 mph - 0.01 in Fog Fog
9:15 AM 32.0 °F 28.7 °F 32.0 °F 100% 29.73 in 0.2 mi NNE 3.5 mph - N/A Fog Fog
9:35 AM 32.0 °F 26.4 °F 32.0 °F 100% 29.75 in 0.5 mi NNE 5.8 mph - 0.02 in   Overcast
9:55 AM 32.0 °F 27.5 °F 32.0 °F 100% 29.76 in 2.5 mi NE 4.6 mph - 0.03 in   Overcast
10:15 AM 32.0 °F 27.5 °F 32.0 °F 100% 29.75 in 0.2 mi NE 4.6 mph - 0.01 in Fog Fog
10:35 AM 33.8 °F 28.6 °F 33.8 °F 100% 29.75 in 0.2 mi NNE 5.8 mph - 0.01 in Fog Fog
10:55 AM 32.0 °F 24.8 °F 32.0 °F 100% 29.75 in 0.2 mi NNE 8.1 mph - 0.01 in Fog Fog
11:15 AM 32.0 °F 23.6 °F 32.0 °F 100% 29.76 in 0.2 mi North 10.4 mph - N/A Fog Fog
11:35 AM 32.0 °F 27.5 °F 32.0 °F 100% 29.76 in 0.2 mi North 4.6 mph - N/A Fog Fog
11:55 AM 32.0 °F 27.5 °F 32.0 °F 100% 29.78 in 0.2 mi NNE 4.6 mph - N/A Fog Fog
12:15 PM 32.0 °F - 32.0 °F 100% 29.76 in 0.2 mi Calm Calm - N/A Fog Fog
12:35 PM 33.8 °F 30.8 °F 33.8 °F 100% 29.76 in 0.2 mi East 3.5 mph - N/A Fog Fog
12:55 PM 33.8 °F - 33.8 °F 100% 29.76 in 0.2 mi Calm Calm - N/A Fog Fog
1:15 PM 33.8 °F 29.6 °F 33.8 °F 100% 29.76 in 0.2 mi NNE 4.6 mph - N/A Fog Fog
1:35 PM 33.8 °F 30.8 °F 33.8 °F 100% 29.76 in 0.2 mi North 3.5 mph - N/A Fog Fog
1:55 PM 33.8 °F 30.8 °F 33.8 °F 100% 29.75 in 0.2 mi NNE 3.5 mph - N/A Fog Fog
2:15 PM 33.8 °F 30.8 °F 33.8 °F 100% 29.75 in 0.2 mi NNE 3.5 mph - N/A Fog Fog
2:35 PM 33.8 °F 29.6 °F 33.8 °F 100% 29.75 in 0.2 mi NNE 4.6 mph - N/A Fog Fog
2:55 PM 33.8 °F - 33.8 °F 100% 29.74 in 0.2 mi Calm Calm - N/A Fog Fog
3:15 PM 33.8 °F 30.8 °F 33.8 °F 100% 29.74 in 0.2 mi NNE 3.5 mph - N/A Fog Fog
3:35 PM 33.8 °F 29.6 °F 33.8 °F 100% 29.74 in 0.2 mi NNE 4.6 mph - N/A Fog Fog
3:55 PM 33.8 °F 28.6 °F 33.8 °F 100% 29.74 in 0.2 mi North 5.8 mph - N/A Fog Fog
4:15 PM 33.8 °F 28.6 °F 33.8 °F 100% 29.74 in 0.2 mi NNE 5.8 mph - N/A Fog Fog
4:35 PM 33.8 °F 28.6 °F 33.8 °F 100% 29.74 in 0.2 mi NNE 5.8 mph - N/A Fog Fog
4:55 PM 35.6 °F 31.7 °F 35.6 °F 100% 29.73 in 0.2 mi NNE 4.6 mph - N/A Fog Fog
5:15 PM 33.8 °F 27.7 °F 33.8 °F 100% 29.74 in 0.2 mi NNE 6.9 mph - N/A Fog Fog
5:35 PM 35.6 °F 29.9 °F 35.6 °F 100% 29.73 in 0.2 mi North 6.9 mph - N/A Fog Fog
5:55 PM 35.6 °F 30.7 °F 35.6 °F 100% 29.74 in 0.2 mi NNE 5.8 mph - N/A Fog Fog
6:15 PM 35.6 °F - 35.6 °F 100% 29.76 in 0.2 mi Calm Calm - N/A Fog Fog
6:35 PM 35.6 °F - 35.6 °F 100% 29.76 in 0.2 mi Calm Calm - N/A Fog Fog
6:55 PM 35.6 °F 30.7 °F 35.6 °F 100% 29.76 in 0.2 mi North 5.8 mph - N/A Fog Fog
7:15 PM 35.6 °F 30.7 °F 35.6 °F 100% 29.76 in 0.2 mi North 5.8 mph - N/A Fog Fog
7:35 PM 33.8 °F 29.6 °F 33.8 °F 100% 29.77 in 0.2 mi NNE 4.6 mph - N/A Fog Fog
7:55 PM 33.8 °F - 33.8 °F 100% 29.77 in 0.2 mi Calm Calm - N/A Fog Fog
8:15 PM 33.8 °F 29.6 °F 33.8 °F 100% 29.77 in 0.2 mi North 4.6 mph - N/A Fog Fog
8:35 PM 33.8 °F 29.6 °F 33.8 °F 100% 29.77 in 0.2 mi North 4.6 mph - N/A Fog Fog
8:55 PM 33.8 °F 29.6 °F 33.8 °F 100% 29.78 in 0.2 mi NNE 4.6 mph - N/A Fog Fog
9:15 PM 33.8 °F - 33.8 °F 100% 29.79 in 0.2 mi Calm Calm - N/A Fog Fog
9:35 PM 33.8 °F 30.8 °F 33.8 °F 100% 29.81 in 0.2 mi NNE 3.5 mph - N/A Fog Fog
9:55 PM 33.8 °F 30.8 °F 33.8 °F 100% 29.81 in 0.2 mi North 3.5 mph - N/A Fog Fog
10:15 PM 33.8 °F 30.8 °F 33.8 °F 100% 29.82 in 0.2 mi NNE 3.5 mph - N/A Fog Fog
10:35 PM 33.8 °F 30.8 °F 33.8 °F 100% 29.82 in 0.2 mi NE 3.5 mph - N/A Fog Fog
10:55 PM 33.8 °F - 33.8 °F 100% 29.82 in 0.2 mi Calm Calm - N/A Fog Fog
11:15 PM 33.8 °F 30.8 °F 33.8 °F 100% 29.82 in 0.2 mi ENE 3.5 mph - N/A Fog Fog
11:35 PM 33.8 °F - 33.8 °F 100% 29.83 in 0.2 mi Calm Calm - N/A Fog Fog
11:55 PM 33.8 °F - 33.8 °F 100% 29.83 in 0.2 mi Calm Calm - N/A Fog Fog